Home   Weather   Christchurch   Past weeks
Flag for New Zealand

Past Weather in Christchurch, New Zealand — December 2016

Now
68 °F

Partly sunny.


Feels Like: 68 °F
Forecast: 77 / 57 °F
Wind: 20 mph from East

Location: Christchurch Airport

Current Time: Feb 26, 2020 at 5:50:54 pm

Latest Report: Feb 26, 2020 at 5:00 pm


Visibility: N/A

Pressure: 29.89 "Hg

Humidity: 73%

Dew Point: 59 °F

Location of ChristchurchLocation

December 2016 Weather in Christchurch — Graph

°F

High & Low Weather Summary for December 2016

 TemperatureHumidityPressure
High86 °F (Dec 21, 2:00 pm)100% (Dec 2, 3:00 am)30.15 "Hg (Dec 2, 3:00 am)
Low41 °F (Dec 30, 3:00 am)13% (Dec 21, 2:30 pm)29.27 "Hg (Dec 10, 2:00 pm)
Average60 °F70%29.80 "Hg
* Reported Dec 1 12:00 am — Dec 31 11:30 pm, Christchurch. Weather by CustomWeather, © 2020

Note: Actual official high and low records may vary slightly from our data, if they occured in-between our weather recording intervals... More about our weather records

Christchurch Weather History for December 1, 2016

Scroll right to see more
 ConditionsComfort  
Time TempWeatherWind HumidityBarometerVisibility
12:00 am
Thu, Dec 1
48 °FPassing clouds.6 mph87%29.98 "HgN/A
12:30 am48 °FOvercast.3 mph87%29.98 "HgN/A
1:00 am48 °FOvercast.3 mph87%29.98 "HgN/A
1:30 am48 °FOvercast.3 mph87%29.98 "HgN/A
2:00 am48 °FOvercast.2 mph87%29.98 "HgN/A
2:30 am48 °FOvercast.3 mph87%29.98 "HgN/A
3:00 am48 °FOvercast.2 mph87%29.98 "HgN/A
3:30 am48 °FOvercast.3 mph87%29.98 "HgN/A
4:00 am48 °FOvercast.2 mph87%29.95 "HgN/A
4:30 am48 °FOvercast.No wind87%29.95 "HgN/A
5:00 am48 °FOvercast.1 mph82%29.95 "HgN/A
5:30 am48 °FOvercast.2 mph87%29.95 "HgN/A
6:00 am48 °FOvercast.No wind87%29.95 "HgN/A
6:30 am48 °FOvercast.3 mph87%29.95 "HgN/A
7:00 am50 °FOvercast.3 mph82%29.98 "HgN/A
7:30 am50 °FOvercast.3 mph82%29.98 "HgN/A
8:00 am50 °FOvercast.3 mph82%29.98 "HgN/A
8:30 am52 °FOvercast.5 mph77%29.98 "HgN/A
9:00 am52 °FOvercast.6 mph82%29.98 "HgN/A
9:30 am54 °FOvercast.8 mph72%29.98 "HgN/A
10:00 am54 °FPartly sunny.10 mph72%29.98 "HgN/A
10:30 am55 °FMore clouds than sun.9 mph63%29.98 "HgN/A
11:00 am55 °FOvercast.10 mph63%29.98 "HgN/A
11:30 am57 °FOvercast.12 mph63%29.98 "HgN/A
12:00 pm57 °FMore clouds than sun.12 mph59%29.95 "HgN/A
12:30 pm57 °FOvercast.12 mph63%29.95 "HgN/A
1:00 pm59 °FMore clouds than sun.13 mph59%29.95 "HgN/A
1:30 pm59 °FPartly sunny.14 mph59%29.95 "HgN/A
2:00 pm61 °FPartly sunny.15 mph59%29.95 "HgN/A
2:30 pm59 °FMostly cloudy.17 mph59%29.95 "HgN/A
3:00 pm57 °FMostly cloudy.17 mph63%29.92 "HgN/A
3:30 pm57 °FPartly sunny.15 mph63%29.92 "HgN/A
4:00 pm57 °FMostly cloudy.16 mph67%29.92 "HgN/A
4:30 pm57 °FOvercast.15 mph67%29.92 "HgN/A
5:00 pm57 °FMore clouds than sun.15 mph67%29.92 "HgN/A
5:30 pm57 °FOvercast.14 mph67%29.92 "HgN/A
6:00 pm55 °FMore clouds than sun.14 mph72%29.92 "HgN/A
6:30 pm55 °FPartly sunny.15 mph72%29.92 "HgN/A
7:00 pm55 °FMostly cloudy.14 mph72%29.92 "HgN/A
7:30 pm55 °FBroken clouds.10 mph72%29.92 "HgN/A
8:00 pm55 °FPartly sunny.12 mph72%29.92 "HgN/A
8:30 pm55 °FMore clouds than sun.9 mph72%29.95 "HgN/A
9:00 pm54 °FOvercast.10 mph77%29.95 "HgN/A
9:30 pm54 °FOvercast.7 mph82%29.95 "HgN/A
10:00 pm52 °FOvercast.8 mph88%29.98 "HgN/A
10:30 pm52 °FMostly cloudy.8 mph94%29.98 "HgN/A
11:00 pm52 °FLight rain. Passing clouds.8 mph94%29.98 "HgN/A
11:30 pm52 °FPassing clouds.8 mph94%29.98 "HgN/A
Weather by CustomWeather, © 2020

See weather overview

Advertising